Home   Weather   Witten   Past weeks
Flag for Germany

Past Weather in Witten, North Rhine-Westphalia, Germany — Yesterday and Last 2 Weeks

Now
55 °F

Clear.


Feels Like: 54 °F
Forecast: 75 / 45 °F
Wind: 6 mph from Southeast

Location: Dortmund / Wickede

Current Time: Sep 20, 2019 at 10:38:12 pm

Latest Report: Sep 20, 2019 at 9:50 pm


Visibility: 10 mi

Pressure: 30.27 "Hg

Humidity: 55%

Dew Point: 39 °F

Location of WittenLocation

Past Weather in Witten — Graph

°F

Witten Temperature Yesterday

Maximum temperature yesterday: 61 °F (at 3:20 pm)
Minimum temperature yesterday: 39 °F (at 6:20 am)
Average temperature yesterday: 50 °F

High & Low Weather Summary for the Past Weeks

 TemperatureHumidityPressure
High75 °F (Sep 15, 4:20 pm)100% (Sep 6, 4:20 am)30.57 "Hg (Sep 6, 4:20 am)
Low39 °F (Sep 19, 6:20 am)29% (Sep 15, 4:20 pm)29.92 "Hg (Sep 9, 5:50 pm)
Average56 °F76%30.22 "Hg
* Reported Sep 5 9:20 pm — Sep 20 9:20 pm, Witten. Weather by CustomWeather, © 2019

Note: Actual official high and low records may vary slightly from our data, if they occured in-between our weather recording intervals... More about our weather records

Advertising

Witten Weather History for the Previous 24 Hours

Scroll right to see more
 ConditionsComfort  
Time TempWeatherWind HumidityBarometerVisibility
9:20 pm
Fri, Sep 20
55 °FClear.6 mph55%30.27 "Hg10 mi
8:50 pm54 °FClear.7 mph58%30.30 "Hg10 mi
8:20 pm55 °FClear.7 mph51%30.30 "Hg10 mi
7:50 pm59 °FClear.6 mph48%30.30 "Hg10 mi
7:20 pm61 °FPassing clouds.5 mph45%30.30 "HgN/A
6:50 pm63 °FPassing clouds.7 mph42%30.30 "HgN/A
6:20 pm63 °FPassing clouds.7 mph39%30.30 "HgN/A
5:50 pm64 °FPassing clouds.6 mph37%30.30 "HgN/A
5:20 pm64 °FPassing clouds.6 mph37%30.30 "HgN/A
4:50 pm64 °FPassing clouds.5 mph37%30.33 "HgN/A
4:20 pm64 °FPassing clouds.5 mph40%30.33 "HgN/A
3:50 pm64 °FPassing clouds.5 mph37%30.33 "HgN/A
3:20 pm64 °FPassing clouds.6 mph40%30.36 "HgN/A
2:50 pm64 °FSunny.6 mph40%30.36 "Hg10 mi
2:20 pm63 °FSunny.3 mph42%30.36 "Hg10 mi
1:50 pm63 °FPassing clouds.5 mph45%30.36 "HgN/A
1:20 pm61 °FSunny.3 mph52%30.39 "Hg10 mi
12:50 pm61 °FPassing clouds.3 mph52%30.39 "HgN/A
12:20 pm59 °FPassing clouds.3 mph55%30.39 "HgN/A
11:50 am59 °FPassing clouds.3 mph51%30.39 "HgN/A
11:20 am57 °FSunny.3 mph59%30.42 "Hg10 mi
10:50 am55 °FPassing clouds.5 mph59%30.42 "HgN/A
10:20 am52 °FPassing clouds.5 mph72%30.42 "HgN/A
9:50 am50 °FPassing clouds.5 mph71%30.42 "HgN/A
9:20 am46 °FSunny.5 mph82%30.42 "Hg10 mi
8:50 am45 °FSunny.7 mph81%30.42 "Hg10 mi
8:20 am43 °FSunny.7 mph87%30.39 "Hg10 mi
7:50 am41 °FSunny.7 mph87%30.39 "Hg10 mi
7:20 am39 °FSunny.7 mph93%30.39 "Hg10 mi
6:50 am39 °FClear.3 mph93%30.39 "Hg10 mi
5:50 am39 °FClear.3 mph93%30.39 "Hg10 mi
5:20 am41 °FClear.5 mph93%30.39 "Hg10 mi
4:50 am41 °FClear.1 mph93%30.39 "HgN/A
4:20 am43 °FClear.3 mph87%30.39 "HgN/A
3:50 am41 °FClear.3 mph87%30.39 "HgN/A
3:20 am43 °FClear.5 mph87%30.42 "HgN/A
2:50 am43 °FClear.9 mph87%30.42 "HgN/A
2:20 am45 °FClear.7 mph81%30.42 "HgN/A
1:50 am45 °FClear.8 mph81%30.42 "HgN/A
1:20 am45 °FClear.7 mph81%30.42 "HgN/A
12:50 am45 °FClear.7 mph87%30.42 "HgN/A
12:20 am45 °FClear.7 mph81%30.42 "HgN/A
11:50 pm
Thu, Sep 19
45 °FClear.7 mph81%30.42 "HgN/A
11:20 pm45 °FClear.6 mph81%30.42 "HgN/A
10:50 pm46 °FClear.5 mph76%30.42 "HgN/A
10:20 pm46 °FClear.3 mph76%30.42 "HgN/A
Weather by CustomWeather, © 2019

See weather overview